Weather in Ulyanino

Russia / Saratov Oblast     52°26′11″N   47°54′26″E
temp.,
°C
wind,
m/s
gust,
m/s
humid.,
%
clouds,
%
prec.,
mm/h
press.,
hPa
HPBL,
m
9 december, thu
thu901:000se5139382 0.0 1024443
04:00−1se51294100 0.0 1023425
07:00−1se51192100 0.0 1023465
10:00−2ese51087100 0.0 1023424
13:00−1se598094 0.0 1022494
16:00−1ese3487100 0.0 1021161
19:00−1ese2292100 0.0 102277
22:00−1ene1297100 1.6 1022100
10 december, fri
fri1001:00−1ne2497100 0.0 1022187
04:00−1nne379598 0.1 1022309
07:00−1nne4994100 0.1 1023395
10:00−1nne51091100 0.1 1024536
13:000nne61187100 0.0 1025584
16:00−1nne81289100 0.1 1026604
19:00−2nne7128799 0.1 1028548
22:00−4nne8128699 0.1 1029500
11 december, sat
sat1101:00−5nne7127980 0.0 1030478
04:00−6nne613767 0.0 1031428
07:00−6nne613711 0.0 1032421
10:00−7ne713710 0.0 1033405
13:00−5ne712620 0.0 1033445
16:00−6ne611670 0.0 1035425
19:00−7ne611711 0.0 1036421
22:00−7ene510721 0.0 1037375
12 december, sun
sun1201:00−7ene58775 0.0 1039294
04:00−7ene46805 0.0 1040210
07:00−8ene35824 0.0 1040149
10:00−7e36775 0.0 1042205
13:00−5e34615 0.0 1042254
16:00−6e34690 0.0 1042108
19:00−7e33734 0.0 104369
22:00−7ese22740 0.0 104340
13 december, mon
mon1301:00−7ese22760 0.0 104339
04:00−8se22771 0.0 104335
07:00−8se22785 0.0 104236
10:00−8se23761 0.0 104279
13:00−5sse24627 0.0 1041209
16:00−6se226993 0.0 104151
19:00−7se22745 0.0 104037
22:00−7sse2277100 0.0 104039